Regional Weather Roundup
Issued by NWS

Home | Current Version | Previous Version | Graphics & Text | Print | Product List | Glossary On
Versions: 1 2 3 4 5 6 7 8 9 10 11 12 13 14 15 16 17 18 19 20 21 22 23 24 25 26 27 28 29 30 31 32 33 34 35 36 37 38 39 40 41 42 43 44 45 46 47 48 49 50
000
ASUS43 KMPX 020810
RWRMN
WEATHER ROUNDUP FOR MINNESOTA
NATIONAL WEATHER SERVICE TWIN CITIES/CHANHASSEN MN
300 AM CDT THU OCT 02 2014


NOTE: "FAIR" INDICATES FEW OR NO CLOUDS BELOW 12,000 FEET WITH NO
SIGNIFICANT WEATHER AND/OR OBSTRUCTIONS TO VISIBILITY. N/A MEANS
CURRENT SKY AND/OR WEATHER CONDITIONS ARE NOT AVAILABLE.

MNZ060>063-068>070-020900-
   Twin Cities Metro

CITY           SKY/WX    TMP DP  RH WIND       PRES   REMARKS
TWIN CITIES    CLOUDY    56  55  97 CALM      29.84R FOG
ST PAUL        CLOUDY    56  56 100 CALM      29.85R FOG
CRYSTAL        CLOUDY    59  56  89 CALM      29.83R FOG
BLAINE         CLOUDY    59  59 100 CALM      29.84R FOG
LAKEVILLE      FOG       54  54 100 CALM      29.84R VSB 1/4
EDEN PRAIRIE   FOG       56  55  97 N3        29.83R VSB 1/4
SOUTH ST PAUL  CLOUDY    57  56  96 CALM      29.84R FOG
LAKE ELMO      CLOUDY    55  55 100 CALM      29.84F FOG
$$
MNZ001>005-007-008-013>017-022>024-027-028-020900-
   Northwest Minnesota

CITY           SKY/WX    TMP DP  RH WIND       PRES   REMARKS
BEMIDJI        CLOUDY    52  49  90 SW6       29.80S
HALLOCK        PTCLDY    50  46  87 SW7       29.76R
ROSEAU         CLOUDY    55  48  76 W9        29.75R
WARROAD        CLOUDY    54  50  87 W8        29.75R
THIEF RVR FALL CLOUDY    55  48  76 W7        29.78S
CROOKSTON      MOCLDY    54  50  87 W7        29.80S
FOSSTON        CLOUDY    52  48  87 SW5       29.81R
DETROIT LAKES  MOCLDY    55  50  82 W3        29.83F
PARK RAPIDS    CLOUDY    50  49  96 W5        29.82R
MAHNOMEN       FAIR      53  49  87 W8        29.81R
$$
MNZ006-009>011-018-025>026-020900-
   North Central Minnesota

CITY           SKY/WX    TMP DP  RH WIND       PRES   REMARKS
BAUDETTE       CLOUDY    53  50  89 SW6       29.75R
FLAG ISLAND    CLOUDY    54  50  87 SW8       29.71R
INTL FALLS     PTCLDY    52  51  97 SW5       29.75R
WASKISH        CLOUDY    55  52  88 CALM      29.77S
BIG FORK       MOCLDY    54  52  94 SW7       29.80R FOG
LONGVILLE      CLOUDY    52  50  93 S3        29.81S FOG
GRAND RAPIDS   CLOUDY   N/A N/A N/A SW8       29.82R
CRANE LAKE     CLOUDY    52  52 100 S3        29.78F
ORR            CLOUDY    54  50  87 S6        29.75F FOG
COOK           CLOUDY    52  52 100 S5        29.79S FOG
WALKER         CLOUDY    51  49  95 CALM      29.81S
$$
MNZ012-019>021-037-020900-
   Northeast Minnesota

CITY           SKY/WX    TMP DP  RH WIND       PRES   REMARKS
DULUTH         FOG       52  51  97 S5        29.82F VSB 1/4
ELY            CLOUDY    52  50  93 SW8       29.80S
HIBBING        CLOUDY    53  51  93 VRB3      29.81S FOG
EVELETH        CLOUDY    52  52 100 CALM      29.81F FOG
DULUTH HARBOR  CLOUDY    54  52  94 S5        29.82F
TWO HARBORS    CLOUDY    52  46  82 CALM      29.80F HAZE
SILVER BAY     CLOUDY    50  50 100 CALM      29.80F FOG
GRAND MARAIS     N/A     51  50  96 CALM      29.81F
G MARAIS ARPRT DRZL/FOG  48  45  87 CALM      29.82F VSB<1/4
$$
MNZ029>031-032-039>041-046>048-054>057-064-020900-
   West Central Minnesota

CITY           SKY/WX    TMP DP  RH WIND       PRES   REMARKS
FERGUS FALLS   PTCLDY    52  48  87 W3        29.83F
WHEATON        PTCLDY    50  46  87 W5        29.85F
MORRIS         CLEAR     48  46  93 W3        29.83F
ALEXANDRIA     CLEAR     51  48  89 W6        29.84F
ELBOW LAKE     FAIR      49  47  95 CALM      29.83F
WADENA         CLOUDY    50  48  93 W6        29.82F
GLENWOOD       CLEAR     48  46  93 W3        29.84F
APPLETON       CLEAR     48  46  93 W3        29.83F
BENSON         CLEAR     46  46 100 CALM      29.83F FOG
ORTONVILLE     PTCLDY    52  46  82 W5        29.85S
MADISON        PTCLDY    52  48  87 CALM      29.84F
WILLMAR        FOG       50  48  93 CALM      29.85F VSB 1/4
$$
MNZ033>034-036-042>043-049>051-058-059-020900-
   Central Minnesota

CITY           SKY/WX    TMP DP  RH WIND       PRES   REMARKS
ST CLOUD       CLOUDY    58  55  90 W6        29.83S FOG
SAUK CENTRE    FOG       44  44 100 CALM      29.84F VSB 1/2
PAYNESVILLE    FOG       50  50 100 CALM      29.84S VSB 1/4
AITKIN         CLOUDY    55  52  88 SW3       29.82R HAZE
PINE RIVER     FOG       50  50 100 CALM      29.86S VSB 1/2
BRAINERD       CLOUDY    52  52 100 SW5       29.84R FOG
STAPLES        CLEAR     46  45  93 CALM      29.83S FOG
LONG PRAIRIE   FOG       45  45 100 CALM      29.84S VSB 1/4
LITTLE FALLS   FOG       52  50  93 CALM      29.84F VSB 3/4
LITCHFIELD     FOG       55  55 100 CALM      29.84F VSB 1/2
BUFFALO        CLOUDY    57  55  93 NW3       29.84S FOG
MAPLE LAKE     CLOUDY    57  56  99 CALM      29.84F FOG
$$
MNZ037-044-045-052-053-020900-
   East Central Minnesota

CITY           SKY/WX    TMP DP  RH WIND       PRES   REMARKS
PRINCETON      CLOUDY    57  55  94 W3        29.84R
MORA           CLOUDY    54  52  94 W3        29.85S FOG
CAMBRIDGE      CLOUDY    57  50  77 CALM      29.82S HAZE
RUSH CITY      LGT RAIN  54  53  97 CALM      29.84R
MOOSE LAKE     FOG       52  52 100 CALM      29.82R VSB 3/4
HINCKLEY       FOG       54  54 100 CALM      29.84R VSB 1/2
CLOQUET        FOG       52  52 100 CALM      29.82S VSB 1/4
MCGREGOR       CLOUDY    54  54 100 W5        29.83R
$$
MNZ071>073-080-081-089-090-097-098-020900-
   Southwest Minnesota

CITY           SKY/WX    TMP DP  RH WIND       PRES   REMARKS
MONTEVIDEO     MOCLDY    52  48  87 N6        29.84F
GRANITE FALLS  MOCLDY    49  48  99 NW3       29.85F
CANBY          CLEAR     51  49  93 W3        29.85F
MARSHALL       PTCLDY    48  45  87 NW3       29.83F
REDWOOD FALLS  CLEAR     54  53  97 NW7       29.83F
OLIVIA         FOG       50  46  87 CALM      29.83F VSB 1/4
PIPESTONE      CLEAR     52  46  82 N5        29.85S
WINDOM         MOCLDY    55  55 100 N3        29.84R FOG
WORTHINGTON    PTCLDY    52  48  87 N7        29.85R
JACKSON        FOG       54  52  94 NW5       29.84R VSB 3/4
TRACY          CLEAR     52  49  91 NW6       29.84F
SLAYTON        CLEAR     50  48  93 CALM      29.85S
$$
MNZ065>067-074>077-082>085-091>093-020900-
   South Central Minnesota

CITY           SKY/WX    TMP DP  RH WIND       PRES   REMARKS
MANKATO        CLOUDY    57  52  82 NW6       29.82S VSB 1/4
NEW ULM        MOCLDY    57  57 100 NW5       29.82F
ST JAMES       FOG       59  57  94 NW3       29.83S VSB 1/4
FAIRMONT       MOCLDY    55  52  88 CALM      29.81S
GLENCOE        FOG       57  57 100 N3        29.83S VSB 1/4
FARIBAULT      FOG       55  55 100 CALM      29.83S VSB 1/4
OWATONNA       FOG       52  50  93 CALM      29.83R VSB<1/4
WASECA         MOCLDY    52  46  82 CALM      29.83S FOG
ALBERT LEA     FOG       54  54 100 CALM      29.82F VSB<1/4
$$
MNZ078>079-086>088-094>096-020900-
   Southeast Minnesota

CITY           SKY/WX    TMP DP  RH WIND       PRES   REMARKS
ROCHESTER      CLOUDY    53  52  96 CALM      29.84S FOG
RED WING       MOCLDY    52  52 100 CALM      29.83R FOG
STANTON        CLOUDY    57  56  94 CALM      29.82S FOG
DODGE CENTER   FOG       54  52  94 NE5       29.83S VSB 1/4
WINONA         FOG       54  54 100 NW5       29.85R VSB 1/4
AUSTIN         CLOUDY    54  52  94 SE5       29.82F FOG
PRESTON        FOG       53  53  97 CALM      29.84S VSB 1/4
$$
ABBREVIATIONS USED IN REMARKS
   TC - TEMPERATURES IN CELSIUS
  WCI - WIND CHILL INDEX
   HX - HEAT INDEX
  VSB - VISIBILITY
$$


USA.gov is the U.S. government's official web portal to all federal, state and local government web resources and services.